Weather in Beshpagir

Russia / Stavropol Krai     45°01′09″N   42°22′36″E
temp.,
°C
wind,
m/s
gust,
m/s
humid.,
%
clouds,
%
prec.,
mm/h
press.,
hPa
HPBL,
m
24 july, sat
sat2400:00+18w228691 0.3 101020
03:00+17wsw11875 0.3 101111
06:00+18wsw12842 0.0 101165
09:00+23nne335919 0.0 1011796
12:00+26ne334537 0.0 10111805
15:00+27ene334399 0.0 10111858
18:00+25sw1153100 0.0 101212
21:00+23n2251100 0.0 101315
25 july, sun
sun2500:00+22nne2249100 0.0 101343
03:00+22nne394870 0.0 1013275
06:00+21ne3849100 0.0 1014251
09:00+21ene3665100 0.3 1015244
12:00+26e47499 0.1 10151139
15:00+29ese710397 0.1 10151891
18:00+25e3854100 0.1 1015484
21:00+24ene395150 0.1 1016257
26 july, mon
mon2600:00+23ese412450 0.0 1016301
03:00+20ese36530 0.0 1016119
06:00+20ese413560 0.0 1017355
09:00+26ese914400 0.0 10171286
12:00+30ese912290 0.0 10162053
15:00+31ese9113013 0.0 10142492
18:00+28ese6114161 0.1 1015667
21:00+24se7155113 0.1 1015439
27 july, tue
tue2700:00+22ese375379 0.1 1016184
03:00+21ese61555100 0.1 1015458
06:00+20e41360100 0.0 1017484
09:00+23se3954100 0.0 1017596
12:00+25e4743100 0.0 10171336
15:00+24ene41045100 0.3 1017417
18:00+20ne71352100 0.0 1018459
21:00+18sse61273100 0.1 1020764
28 july, wed
wed2800:00+17sse71574100 0.1 1020488
03:00+17sse6147221 0.1 1019527
06:00+18sse5146728 0.0 1019537
09:00+23se68466 0.0 1019880
12:00+26se45380 0.0 10181589
15:00+28ese45330 0.0 10172420
18:00+27e35372 0.0 10161466
21:00+20s37572 0.0 1017125